Flag for Mexico Weather past 2 weeks in Guadalajara, Jalisco, Mexico

Now
64 °F

Mostly cloudy.


Feels Like: 64 °F
Forecast: 64 / 80 °F
Wind: No wind

Location: Don Miguel / Guadalaj

Current Time: Sep 3, 2015 at 6:38:23 AM

Latest Report: Sep 3, 2015 at 5:47 AM


Visibility: 10 mi

Pressure: 30.14 "Hg (25.15 "Hg at 1543m altitude)

Humidity: 88%

Dew point: 61 °F

Location of GuadalajaraLocation

Historic Weather in Guadalajara — Graph

°F

Guadalajara temperature yesterday

Maximum temperature yesterday: 81 °F (at 2:46 PM)
Minimum temperature yesterday: 63 °F (at 7:52 AM)
Average temperature yesterday: 71 °F

Past Weeks' High & Low Weather Summary

 TemperatureHumidityPressure
High84 °F (Aug 21, 5:45 PM)94% (Aug 19, 6:49 AM)30.30 "Hg (Aug 19, 6:49 AM)
Low57 °F (Aug 27, 7:50 AM)23% (Aug 29, 4:46 PM)29.73 "Hg (Aug 30, 6:52 PM)
Average70 °F70%30.09 "Hg
* Reported Aug 19 5:53 AM — Sep 3 4:51 AM, Guadalajara, Weather by CustomWeather, © 2015

Note: Actual official high and low records may vary slightly from our data, if they occured in-between our weather recording intervals... More about our weather records

Advertising

Guadalajara weather history for previous 24 hours

 ConditionsComfort  
Time TempWeatherWind HumidityBarometerVisibility
4:51 AM
Thu, Sep 3
64 °FPassing clouds.No wind94%30.15 "Hg10 mi
2:51 AM66 °FPassing clouds.No wind88%30.18 "Hg10 mi
1:57 AM66 °FPassing clouds.No wind88%30.18 "Hg10 mi
12:49 AM68 °FPassing clouds.No wind83%29.85 "Hg10 mi
11:50 PM
Wed, Sep 2
68 °FPassing clouds.No wind78%30.20 "Hg10 mi
10:49 PM68 °FPassing clouds.No wind78%30.19 "Hg10 mi
9:53 PM70 °FPassing clouds.5 mph69%29.91 "Hg10 mi
8:45 PM70 °FPartly sunny.5 mph69%30.14 "Hg10 mi
7:45 PM72 °FBroken clouds.7 mph65%30.12 "Hg10 mi
6:48 PM73 °FBroken clouds.5 mph65%29.82 "Hg10 mi
5:47 PM77 °FBroken clouds.9 mph51%30.11 "Hg10 mi
3:48 PM79 °FPartly sunny.3 mph54%29.80 "Hg10 mi
2:46 PM81 °FPartly sunny.No wind51%30.18 "Hg10 mi
1:47 PM77 °FPartly sunny.9 mph57%30.20 "Hg10 mi
12:49 PM75 °FPartly sunny.5 mph57%29.89 "Hg10 mi
11:47 AM73 °FPartly sunny.5 mph65%30.25 "Hg7 mi
10:47 AM72 °FPartly sunny.6 mph69%30.25 "Hg6 mi
9:48 AM72 °FPartly sunny.No wind73%29.97 "Hg5 mi
8:50 AM64 °FPassing clouds.No wind88%30.22 "Hg6 mi
7:52 AM63 °FPartly cloudy.No wind94%30.22 "Hg8 mi
Weather by CustomWeather, © 2015

See weather overviewHow to use our weather pages